Hourly Data Report for November 28, 2003

TORONTO CITY
ONTARIO

43°40'00.000" N
79°24'00.000" W
112.50 m
6158355
71508
XTO

Download Data

Hourly Data (November 2003)
Hourly Data Report for November 28, 2003
TIME
LST
Temp Definition
°C
Dew Point Definition
°C
Rel Hum Definition
%
Precip. Amount Definition
mm

Wind Dir Definition
10's deg

Wind Spd Definition
km/h
Visibility Definition
km
Stn Press Definition
kPa
Hmdx Definition


Wind Chill Definition


Weather Definition


00:00 5.8 5.5 98   LegendMM LegendMM LegendMM 99.91     LegendNANA
01:00 5.9 5.6 98   LegendMM LegendMM LegendMM 99.91     LegendNANA
02:00 6.1 5.7 97   LegendMM LegendMM LegendMM 99.88     LegendNANA
03:00 6.3 5.7 96   LegendMM LegendMM LegendMM 99.81     LegendNANA
04:00 6.3 5.6 95   LegendMM LegendMM LegendMM 99.75     LegendNANA
05:00 6.3 5.7 96   LegendMM LegendMM LegendMM 99.68     LegendNANA
06:00 6.4 5.8 96   LegendMM LegendMM LegendMM 99.52     LegendNANA
07:00 6.1 5.4 95   LegendMM LegendMM LegendMM 99.58     LegendNANA
08:00 6.0 5.6 97   LegendMM LegendMM LegendMM 99.45     LegendNANA
09:00 5.7 5.1 96   LegendMM LegendMM LegendMM 99.28     LegendNANA
10:00 5.5 4.9 96   LegendMM LegendMM LegendMM 99.11     LegendNANA
11:00 5.4 4.8 96   LegendMM LegendMM LegendMM 98.96     LegendNANA
12:00 5.5 4.9 96   LegendMM LegendMM LegendMM 98.75     LegendNANA
13:00 5.5 4.8 95   LegendMM LegendMM LegendMM 98.62     LegendNANA
14:00 4.9 4.0 94   LegendMM LegendMM LegendMM 98.46     LegendNANA
15:00 4.5 3.6 94   LegendMM LegendMM LegendMM 98.38     LegendNANA
16:00
17:00 3.0 2.1 94   LegendMM LegendMM LegendMM 98.36     LegendNANA
18:00 2.5 1.8 95   LegendMM LegendMM LegendMM 98.28     LegendNANA
19:00 2.2 1.5 95   LegendMM LegendMM LegendMM 98.33     LegendNANA
20:00 2.0 1.4 96   LegendMM LegendMM LegendMM 98.21     LegendNANA
21:00 2.1 1.4 95   LegendMM LegendMM LegendMM 98.15     LegendNANA
22:00 1.7 1.1 96   LegendMM LegendMM LegendMM 98.08     LegendNANA
23:00 2.0 0.7 91   LegendMM LegendMM LegendMM 97.96     LegendNANA

Notes on Data Quality.

Legend

  • E = Estimated
  • M = Missing
  • NA = Not Available*
  • [empty] = Indicates an unobserved value
Date modified: